User: anonymous   Login
Location: Unspecified
(0.0000°N, 0.0000°E)
Time: 19:22:28
(UTC+00:00)
Language:

SPROUT - Orbit

View from above orbital plane
View from above orbital plane
View from above satellite
View from above satellite

Ground track
Ground track

The orbit data is extracted from the following two-line orbital elements,

1 39770U 14029E   18140.46309854  .00000841  00000-0  10047-3 0  9993
2 39770  97.8750 241.7426 0007597 306.0494  54.0027 14.86822497216248
Epoch (UTC): 20 May 2018 11:06:51
Eccentricity: 0.0007597
inclination: 97.8750°
perigee height: 602 km
apogee height: 613 km
right ascension of ascending node: 241.7426°
argument of perigee: 306.0494°
revolutions per day: 14.86822497
mean anomaly at epoch: 54.0027°
orbit number at epoch: 21624

The dashed part of the orbit path shows where the satellite is in the earth's shadow,  

DLR